^^
Atglen Borough Observatory Historical Data
 
Daily Summary for July 22, 2019 Units:  English    Metric   Both
Daily Weekly Monthly Yearly Custom
  Current: High: Low: Average:
Temperature: 85.8 °F 90 °F 72.7 °F 79.1 °F
Dew Point: 73.9 °F 76.8 °F 71.1 °F 73.1 °F
Humidity: 68% 96% 61% 83%
Wind Speed: 2.9mph 9mph 0mph 1.8mph
Wind Gust: 6mph 12mph - -
WindSW - - SSW
Pressure: 29.71 in 29.85 in 29.70 in -
Precipitation: 0 in      
Historical Graphs
 
 
Tabular Data for July 22, 2019
Time Temperature Dew Point Pressure Wind Wind Speed Wind Gust Humidity Rainfall Rate (Hourly)
00:04 75.4 °F 72 °F 29.81 in NNW 0.9 mph 4 mph 89% 0.01 in
00:09 75.4 °F 72 °F 29.83 in Calm     89% 0 in
00:14 75.4 °F 72.3 °F 29.83 in NNW 2 mph 2 mph 90% 0 in
00:19 74.8 °F 72 °F 29.83 in Calm   1 mph 91% 0 in
00:24 74.7 °F 71.8 °F 29.83 in NNW 0.9 mph 1 mph 91% 0 in
00:29 74.5 °F 72 °F 29.83 in Calm   2 mph 92% 0 in
00:34 74.5 °F 72 °F 29.84 in SE 0.9 mph 1 mph 92% 0 in
00:39 74.1 °F 72 °F 29.84 in Calm   2 mph 93% 0 in
00:44 74.3 °F 72.1 °F 29.84 in Calm   1 mph 93% 0 in
00:49 74.3 °F 72.5 °F 29.84 in Calm     94% 0 in
00:54 74.1 °F 72.3 °F 29.85 in Calm     94% 0 in
00:59 74.5 °F 72.7 °F 29.85 in Calm   1 mph 94% 0 in
01:04 74.3 °F 72.5 °F 29.85 in Calm     94% 0 in
01:09 74.1 °F 72.3 °F 29.85 in SE 0.9 mph 1 mph 94% 0 in
01:14 74.1 °F 72.3 °F 29.84 in Calm     94% 0 in
01:19 73.9 °F 72.1 °F 29.84 in SE 0.9 mph 2 mph 94% 0 in
01:24 73.9 °F 72.1 °F 29.85 in SE 2 mph 3 mph 94% 0 in
01:29 73.9 °F 72.5 °F 29.84 in Calm   1 mph 95% 0 in
01:34 73.8 °F 72.3 °F 29.84 in Calm   1 mph 95% 0 in
01:39 73.8 °F 72.3 °F 29.84 in Calm     95% 0 in
01:44 73.8 °F 72.3 °F 29.84 in Calm   1 mph 95% 0 in
01:49 73.8 °F 72.3 °F 29.83 in Calm   3 mph 95% 0 in
01:54 73.9 °F 72.5 °F 29.83 in SE 0.9 mph 1 mph 95% 0 in
01:59 73.9 °F 72.5 °F 29.84 in SE 2 mph 2 mph 95% 0 in
02:04 73.9 °F 72.5 °F 29.83 in Calm     95% 0 in
02:09 73.9 °F 72.5 °F 29.83 in Calm     95% 0 in
02:14 73.8 °F 72.3 °F 29.84 in Calm     95% 0 in
02:19 73.8 °F 72.3 °F 29.84 in Calm     95% 0 in
02:24 73.8 °F 72.3 °F 29.84 in Calm   2 mph 95% 0 in
02:29 73.8 °F 72.3 °F 29.84 in SE 2 mph 2 mph 95% 0 in
02:34 73.6 °F 72.1 °F 29.84 in Calm     95% 0 in
02:39 73.4 °F 72 °F 29.84 in Calm     95% 0 in
02:44 73.2 °F 71.8 °F 29.84 in Calm   1 mph 95% 0 in
02:49 73.2 °F 72 °F 29.84 in Calm   1 mph 96% 0 in
02:54 73.2 °F 72 °F 29.83 in Calm   2 mph 96% 0 in
02:59 73.2 °F 72 °F 29.83 in Calm   1 mph 96% 0 in
03:04 73.2 °F 72 °F 29.83 in SE 0.9 mph 2 mph 96% 0 in
03:09 73.2 °F 72 °F 29.83 in Calm   1 mph 96% 0 in
03:14 73.2 °F 72 °F 29.83 in Calm     96% 0 in
03:19 73 °F 71.8 °F 29.83 in Calm   1 mph 96% 0 in
03:24 73 °F 71.8 °F 29.83 in Calm     96% 0 in
03:29 72.9 °F 71.6 °F 29.83 in Calm     96% 0 in
03:34 72.9 °F 71.6 °F 29.83 in Calm     96% 0 in
03:39 72.9 °F 71.6 °F 29.84 in Calm     96% 0 in
03:44 72.9 °F 71.6 °F 29.83 in SE 0.9 mph 2 mph 96% 0 in
03:49 72.9 °F 71.6 °F 29.83 in Calm   1 mph 96% 0 in
03:54 72.7 °F 71.4 °F 29.83 in Calm   1 mph 96% 0 in
03:59 72.7 °F 71.4 °F 29.83 in Calm     96% 0 in
04:04 72.7 °F 71.4 °F 29.83 in SE 0.9 mph 3 mph 96% 0 in
04:09 72.9 °F 71.6 °F 29.84 in West 2.9 mph 4 mph 96% 0 in
04:14 72.9 °F 71.6 °F 29.84 in West 0.9 mph 2 mph 96% 0 in
04:19 72.9 °F 71.6 °F 29.84 in West 0.9 mph 2 mph 96% 0 in
04:24 72.7 °F 71.4 °F 29.83 in Calm   2 mph 96% 0 in
04:29 72.7 °F 71.4 °F 29.83 in Calm     96% 0 in
04:34 72.7 °F 71.4 °F 29.83 in Calm   1 mph 96% 0 in
04:39 72.9 °F 71.6 °F 29.83 in West 0.9 mph 2 mph 96% 0 in
04:44 72.9 °F 71.6 °F 29.83 in Calm     96% 0 in
04:49 72.9 °F 71.6 °F 29.83 in Calm     96% 0 in
04:54 72.9 °F 71.6 °F 29.83 in Calm     96% 0 in
04:59 72.9 °F 71.6 °F 29.83 in Calm     96% 0 in
05:04 72.9 °F 71.6 °F 29.82 in Calm     96% 0 in
05:09 72.9 °F 71.6 °F 29.82 in Calm     96% 0 in
05:14 73 °F 71.8 °F 29.82 in Calm     96% 0 in
05:19 73 °F 71.8 °F 29.82 in Calm     96% 0 in
05:24 73 °F 71.8 °F 29.83 in Calm     96% 0 in
05:29 73 °F 71.8 °F 29.83 in Calm     96% 0 in
05:34 73 °F 71.8 °F 29.82 in Calm     96% 0 in
05:39 73 °F 71.8 °F 29.83 in Calm     96% 0 in
05:44 73 °F 71.8 °F 29.83 in Calm     96% 0 in
05:49 72.9 °F 71.6 °F 29.82 in Calm     96% 0 in
05:54 72.9 °F 71.6 °F 29.82 in Calm     96% 0 in
05:59 72.9 °F 71.6 °F 29.82 in Calm     96% 0 in
06:04 73 °F 71.8 °F 29.82 in Calm     96% 0 in
06:09 73 °F 71.8 °F 29.82 in Calm     96% 0 in
06:14 73 °F 71.8 °F 29.83 in Calm     96% 0 in
06:19 73 °F 71.8 °F 29.83 in Calm     96% 0 in
06:24 73 °F 71.8 °F 29.83 in Calm     96% 0 in
06:29 73.2 °F 72 °F 29.82 in Calm     96% 0 in
06:34 73.2 °F 72 °F 29.82 in Calm     96% 0 in
06:39 73.6 °F 72.3 °F 29.82 in Calm     96% 0 in
06:44 73.6 °F 72.3 °F 29.82 in Calm     96% 0 in
06:49 73.8 °F 72.5 °F 29.82 in Calm     96% 0 in
06:54 73.9 °F 72.7 °F 29.82 in Calm     96% 0 in
06:59 74.1 °F 72.7 °F 29.82 in Calm     95% 0 in
07:04 74.1 °F 72.7 °F 29.82 in SE 2 mph 4 mph 95% 0 in
07:09 74.5 °F 73 °F 29.82 in SE 0.9 mph 3 mph 95% 0 in
07:14 74.5 °F 72.7 °F 29.81 in SE 0.9 mph 3 mph 94% 0 in
07:19 74.7 °F 72.9 °F 29.82 in Calm   1 mph 94% 0 in
07:24 74.8 °F 72.7 °F 29.82 in Calm   2 mph 93% 0 in
07:29 75.2 °F 73 °F 29.82 in Calm   3 mph 93% 0 in
07:34 75.7 °F 73.2 °F 29.81 in Calm   5 mph 92% 0 in
07:39 76.1 °F 73.2 °F 29.82 in South 2.9 mph 3 mph 91% 0 in
07:44 76.6 °F 73.4 °F 29.82 in SE 2.9 mph 3 mph 90% 0 in
07:49 77 °F 73.6 °F 29.82 in SSW 2.9 mph 4 mph 89% 0 in
07:54 77.4 °F 73.6 °F 29.82 in SSE 2 mph 4 mph 88% 0 in
07:59 77.7 °F 73.9 °F 29.82 in SSE 0.9 mph 4 mph 88% 0 in
08:04 77.9 °F 73.8 °F 29.82 in SSE 4 mph 5 mph 87% 0 in
08:09 77.9 °F 74.1 °F 29.82 in Calm   1 mph 88% 0 in
08:14 78.1 °F 73.9 °F 29.82 in Calm   1 mph 87% 0 in
08:19 78.4 °F 74.3 °F 29.82 in SSE 2 mph 2 mph 87% 0 in
08:24 79 °F 74.8 °F 29.82 in SSE 0.9 mph 2 mph 87% 0 in
08:29 79.2 °F 74.3 °F 29.82 in SSE 2 mph 4 mph 85% 0 in
08:34 79 °F 74.1 °F 29.82 in SSE 4 mph 4 mph 85% 0 in
08:39 79 °F 74.1 °F 29.82 in SSE 4 mph 6 mph 85% 0 in
08:44 79.3 °F 74.1 °F 29.81 in SW 2.9 mph 4 mph 84% 0 in
08:49 79.7 °F 74.5 °F 29.81 in SW 2 mph 3 mph 84% 0 in
08:54 80.4 °F 74.5 °F 29.81 in SSE 2 mph 7 mph 82% 0 in
08:59 80.8 °F 75.6 °F 29.81 in SSW 4 mph 4 mph 84% 0 in
09:04 81 °F 74.7 °F 29.81 in SW 0.9 mph 5 mph 81% 0 in
09:09 81.3 °F 75.4 °F 29.81 in SW 2 mph 5 mph 82% 0 in
09:14 81.7 °F 74.5 °F 29.81 in South 2 mph 4 mph 79% 0 in
09:19 81.9 °F 74.3 °F 29.80 in SSW 4 mph 5 mph 78% 0 in
09:24 82.4 °F 74.1 °F 29.81 in SE 4.9 mph 10 mph 76% 0 in
09:29 82.6 °F 74.3 °F 29.80 in South 2 mph 7 mph 76% 0 in
09:34 82.8 °F 73.6 °F 29.80 in SSW 2.9 mph 6 mph 74% 0 in
09:39 82.4 °F 73.8 °F 29.80 in SSW 2 mph 4 mph 75% 0 in
09:44 82.8 °F 73.2 °F 29.80 in SW 2.9 mph 3 mph 73% 0 in
09:49 82.8 °F 73.2 °F 29.80 in SSW 4 mph 9 mph 73% 0 in
09:54 82.6 °F 73.4 °F 29.80 in SSW 2.9 mph 5 mph 74% 0 in
09:59 83.1 °F 73.9 °F 29.80 in SSW 6 mph 8 mph 74% 0 in
10:04 82.9 °F 73.4 °F 29.80 in West 2 mph 7 mph 73% 0 in
10:09 83.5 °F 73.9 °F 29.80 in NW 4.9 mph 5 mph 73% 0 in
10:14 83.7 °F 73.6 °F 29.80 in WNW 4 mph 7 mph 72% 0 in
10:19 83.5 °F 73 °F 29.80 in WSW 2 mph 7 mph 71% 0 in
10:24 83.3 °F 74.1 °F 29.80 in SW 6 mph 7 mph 74% 0 in
10:29 84 °F 74.5 °F 29.80 in West 4 mph 4 mph 73% 0 in
10:34 84.6 °F 72.3 °F 29.80 in SW 2 mph 7 mph 67% 0 in
10:39 84 °F 72 °F 29.80 in South 2.9 mph 4 mph 67% 0 in
10:44 84.2 °F 73.8 °F 29.79 in WSW 2 mph 5 mph 71% 0 in
10:49 83.7 °F 71.1 °F 29.79 in SSW 2.9 mph 6 mph 66% 0 in
10:54 84 °F 72.7 °F 29.79 in SSW 0.9 mph 5 mph 69% 0 in
10:59 84.4 °F 72.1 °F 29.79 in SSW 2 mph 5 mph 67% 0 in
11:04 83.5 °F 71.8 °F 29.79 in SSW 2 mph 4 mph 68% 0 in
11:09 83.7 °F 72.3 °F 29.79 in SSW 2 mph 4 mph 69% 0 in
11:14 84.4 °F 72.1 °F 29.79 in SSW 2 mph 7 mph 67% 0 in
11:19 84.7 °F 72.1 °F 29.79 in West 2 mph 10 mph 66% 0 in
11:24 85.1 °F 72.9 °F 29.79 in SW 6 mph 9 mph 67% 0 in
11:29 85.6 °F 74.3 °F 29.79 in SSE 8.1 mph 11 mph 69% 0 in
11:34 85.6 °F 73 °F 29.79 in South 4.9 mph 9 mph 66% 0 in
11:39 85.8 °F 72.7 °F 29.79 in South 4.9 mph 9 mph 65% 0 in
11:44 85.8 °F 73.6 °F 29.79 in SSW 2 mph 9 mph 67% 0 in
11:49 85.6 °F 71.6 °F 29.79 in SW 2.9 mph 10 mph 63% 0 in
11:54 85.6 °F 72.1 °F 29.79 in SSE 4 mph 9 mph 64% 0 in
11:59 86 °F 72.3 °F 29.79 in SSW 2 mph 5 mph 64% 0 in
12:04 86.4 °F 74.1 °F 29.78 in West 2.9 mph 7 mph 67% 0 in
12:09 86.5 °F 73.8 °F 29.78 in NNW 2 mph 6 mph 66% 0 in
12:14 86.5 °F 72.9 °F 29.78 in SSW 6 mph 8 mph 64% 0 in
12:19 86.5 °F 75.2 °F 29.78 in South 8.1 mph 8 mph 69% 0 in
12:24 86.5 °F 73.8 °F 29.78 in SSW 6 mph 7 mph 66% 0 in
12:29 85.8 °F 73.6 °F 29.77 in SSW 2.9 mph 4 mph 67% 0 in
12:34 86.4 °F 73.6 °F 29.77 in WSW 8.1 mph 8 mph 66% 0 in
12:39 86.7 °F 74.5 °F 29.77 in SSW 8.1 mph 12 mph 67% 0 in
12:44 86.7 °F 76.1 °F 29.77 in West 2.9 mph 10 mph 71% 0 in
12:49 87.1 °F 74.3 °F 29.77 in SSW 2.9 mph 6 mph 66% 0 in
12:54 87.3 °F 76.3 °F 29.77 in Calm   5 mph 70% 0 in
12:59 87.6 °F 75.4 °F 29.77 in NE 2 mph 8 mph 67% 0 in
13:04 87.4 °F 74.3 °F 29.76 in West 4 mph 4 mph 65% 0 in
13:09 86.7 °F 73.9 °F 29.76 in West 2.9 mph 5 mph 66% 0 in
13:14 87.4 °F 76.5 °F 29.76 in WSW 2 mph 10 mph 70% 0 in
13:19 86.9 °F 74.7 °F 29.76 in SSW 4.9 mph 10 mph 67% 0 in
13:24 87.3 °F 75.4 °F 29.75 in SSW 4 mph 7 mph 68% 0 in
13:29 88 °F 75.6 °F 29.75 in West 9 mph 9 mph 67% 0 in
13:34 87.8 °F 75.4 °F 29.75 in SSW 4 mph 5 mph 67% 0 in
13:39 88 °F 74.7 °F 29.75 in SSE 8.1 mph 10 mph 65% 0 in
13:44 88 °F 76.5 °F 29.74 in NW 2 mph 7 mph 69% 0 in
13:49 88.9 °F 76.1 °F 29.74 in SSE 4 mph 6 mph 66% 0 in
13:54 89.2 °F 75.9 °F 29.74 in West 2 mph 5 mph 65% 0 in
13:59 87.4 °F 73.8 °F 29.74 in Calm   4 mph 64% 0 in
14:04 88.3 °F 76.8 °F 29.73 in SSW 2.9 mph 8 mph 69% 0 in
14:09 88.9 °F 75.6 °F 29.73 in SW 2.9 mph 7 mph 65% 0 in
14:14 88 °F 75.6 °F 29.73 in West 0.9 mph 8 mph 67% 0 in
14:19 88.5 °F 74.8 °F 29.73 in NW 4 mph 8 mph 64% 0 in
14:24 88.2 °F 74.8 °F 29.73 in WSW 2.9 mph 5 mph 65% 0 in
14:29 88.5 °F 75.7 °F 29.72 in South 2.9 mph 8 mph 66% 0 in
14:34 88.5 °F 74.8 °F 29.72 in SW 4.9 mph 6 mph 64% 0 in
14:39 88 °F 75.2 °F 29.72 in South 4 mph 7 mph 66% 0 in
14:44 88.9 °F 75.2 °F 29.71 in SW 4.9 mph 9 mph 64% 0 in
14:49 88.9 °F 73.8 °F 29.71 in SSW 2.9 mph 6 mph 61% 0 in
14:54 89.2 °F 75 °F 29.71 in SSW 2.9 mph 6 mph 63% 0 in
14:59 90 °F 74.7 °F 29.71 in SSW 2 mph 6 mph 61% 0 in
15:04 90 °F 75.2 °F 29.71 in ESE 4 mph 11 mph 62% 0 in
15:09 88.9 °F 74.1 °F 29.71 in SW 4.9 mph 9 mph 62% 0 in
15:14 87.6 °F 73.4 °F 29.70 in SW 4 mph 6 mph 63% 0 in
15:19 86.9 °F 72.9 °F 29.71 in South 6 mph 9 mph 63% 0 in
15:24 85.8 °F 73.9 °F 29.71 in SW 2.9 mph 6 mph 68% 0 in
Atglen Borough Observatory, Pennsylvania, USA
Compliments of Weather Underground - 3 mb